#timestamp,LO_Frequency,Hit,StdDev 
1510390815.3,286047000.7,N
1510390835.1,286046998.6,N
1510390836.0,286046998.6,N
1510390855.8,286046999.9,N
1510390875.7,286047000.1,N
1510390895.5,286047001.0,N
1510390915.4,286047000.4,N
1510390935.2,286046999.9,N
1510390955.0,286047001.0,N
1510390955.9,286047001.0,N
1510390975.8,286046998.6,N
1510390995.6,286047001.0,N
1510391015.4,286047000.4,N
1510391035.3,286047000.5,N
1510391055.1,286047001.1,N
1510391075.9,286046998.2,N
1510391095.7,286047000.9,N
1510391115.5,286046999.8,N
1510391135.4,286047000.4,N
1510391155.2,286046999.8,N
1510391175.1,286047002.7,N
1510391176.0,286047002.7,N
1510391195.8,286047001.5,N
1510391215.6,286047001.8,N
1510391235.5,286047000.2,N
1510391255.3,286047000.4,N
1510391275.1,286047000.6,N
1510391295.9,286046998.1,N
1510391315.7,286047001.0,N
1510391335.6,286047000.5,N
1510391355.4,286047000.7,N
1510391375.2,286047000.7,N
1510391395.1,286047001.2,N
1510391396.0,286047001.2,N
1510391415.8,286046999.2,N
1510391435.6,286046999.4,N
1510391455.5,286046999.1,N
1510391475.3,286046998.8,N
1510391495.2,286046999.8,N
1510391515.9,286047011.9,Y
1510391535.7,286047000.7,P
1510391555.6,286046998.2,P
1510391575.4,286047000.8,N
1510391595.3,286046998.3,N
1510391615.1,286046998.2,N
1510391616.0,286046998.2,N
1510391635.8,286046999.0,N
1510391655.7,286046999.5,N
1510391675.5,286046996.9,N
1510391695.4,286046997.2,N
1510391715.2,286046995.5,Y
1510391735.0,286046997.4,P
1510391735.9,286046997.4,P
1510391755.8,286046999.0,N
1510391775.6,286046998.6,N
1510391795.4,286046998.3,N
1510391815.3,286046998.6,N
1510391835.1,286047000.9,N
1510391855.9,286047002.7,N
1510391875.7,286046999.8,N
1510391895.5,286046999.9,N
1510391915.4,286047000.2,N
1510391935.2,286046999.8,N
1510391955.0,286047001.0,N
1510391955.9,286047001.0,N
1510391975.8,286047001.2,N
1510391995.6,286047002.2,N
1510392015.5,286047001.4,N
1510392035.3,286047001.7,N
1510392055.1,286047002.2,N
1510392075.9,286047003.9,N
1510392095.7,286047003.8,N
1510392115.5,286047003.9,N
1510392135.4,286047005.9,Y
1510392155.2,286047005.2,P
1510392175.1,286047005.9,N
1510392176.0,286047005.9,N
1510392195.8,286047003.1,N
1510392215.6,286047006.7,Y
1510392235.5,286046999.7,P
1510392255.3,286046998.1,N
1510392275.1,286046998.4,N
1510392295.9,286046999.6,N
1510392315.7,286046996.8,N
1510392335.6,286046997.0,N
1510392355.4,286046996.8,N
1510392375.2,286046999.0,N
1510392395.1,286046998.9,N
1510392396.0,286046998.9,N
1510392415.8,286047001.0,N
1510392435.6,286046998.2,N
1510392455.5,286046999.2,N
1510392475.3,286046998.3,N
1510392495.2,286046998.7,N
1510392515.9,286046996.8,N
1510392535.7,286046997.3,N
1510392555.6,286046999.5,N
1510392575.4,286046997.6,N
1510392595.2,286046997.3,N
1510392615.1,286046996.7,N
1510392616.0,286046996.7,N
1510392635.8,286046998.3,N
1510392655.7,286046997.2,N
1510392675.5,286046997.4,N
1510392695.3,286046996.8,N
1510392715.2,286046997.8,N
1510392735.0,286046997.3,N
1510392735.9,286046997.3,N
1510392755.7,286046999.4,N
1510392775.6,286047001.2,N
1510392795.4,286047000.1,N
1510392815.3,286046999.7,N
1510392835.1,286047000.1,N
1510392836.0,286047000.1,N
1510392855.8,286046998.2,N
1510392875.7,286046998.2,N
1510392895.5,286046998.6,N
1510392915.3,286046998.5,N
1510392935.2,286046998.8,N
1510392955.0,286046999.0,N
1510392955.9,286046999.0,N
1510392975.8,286046999.6,N
1510392995.6,286046998.9,N
1510393015.4,286046999.6,N
1510393035.3,286046998.2,N
1510393055.1,286046998.1,N
1510393075.8,286046999.3,N
1510393095.7,286046999.5,N
1510393115.5,286046996.8,N
1510393135.4,286046996.8,N
1510393155.2,286046999.2,N
1510393175.0,286046997.6,N
1510393175.9,286046997.6,N
1510393195.8,286046995.4,Y
1510393215.6,286046997.3,P
1510393235.5,286046997.9,P
1510393255.3,286046999.6,N
1510393275.1,286046997.4,Y
1510393295.9,286046998.2,P
1510393315.7,286047000.4,P
1510393335.5,286047000.5,N
1510393355.4,286047001.1,N
1510393375.2,286046999.4,N
1510393395.1,286047000.7,N
1510393396.0,286047000.7,N
1510393415.8,286046999.8,N
1510393435.6,286047002.0,N
1510393455.5,286047000.0,N
1510393475.3,286046998.6,N
1510393495.1,286047001.0,N
1510393515.9,286047000.7,N
1510393535.7,286046999.7,N
1510393555.6,286047002.1,N
1510393575.4,286047001.6,N
1510393595.2,286047002.3,N
1510393615.1,286047002.2,N
1510393616.0,286047002.2,N
1510393635.8,286047001.7,N
1510393655.7,286047004.1,Y
1510393675.5,286047000.1,P
1510393695.3,286047000.3,N
1510393715.2,286046999.7,N
1510393735.0,286047000.7,N
1510393735.9,286047000.7,N
1510393755.8,286046998.4,Y
1510393775.6,286047000.2,P
1510393795.4,286047000.0,N
1510393815.3,286047000.9,P
1510393835.1,286047000.7,N
1510393855.8,286046998.8,Y
1510393875.7,286046999.6,P
1510393895.5,286046999.3,N
1510393915.4,286046997.0,P
1510393935.2,286046999.4,N
1510393955.0,286046996.6,N
1510393955.9,286046996.6,N
1510393975.8,286046995.3,Y
1510393995.6,286046996.6,P
1510394015.5,286046999.2,N
1510394035.3,286046996.7,P
1510394055.1,286046996.6,Y
1510394075.9,286047002.7,P
1510394095.7,286046999.7,N
1510394115.5,286047004.2,N
1510394135.4,286047004.3,N
1510394155.2,286047001.8,N
1510394175.1,286047003.7,N
1510394176.0,286047003.7,N
1510394195.8,286047003.2,N
1510394215.6,286047002.4,N
1510394235.5,286047002.8,N
1510394255.3,286047000.6,N
1510394275.1,286046999.8,N
1510394295.9,286047001.5,N
1510394315.7,286047003.6,N
1510394335.6,286047007.1,Y
1510394355.4,286047004.3,P
1510394375.2,286047004.2,P
1510394395.1,286047004.1,P
1510394396.0,286047004.1,Y
